Weather History for FAUP - February, 2014

Change the Weather History Date:

Sunday, February 2, 2014

  Actual Average Record
Temperature  
Mean Temperature 83 °F -  
Max Temperature 98 °F 93 °F 106 °F (2013)
Min Temperature 68 °F 65 °F 32 °F (2004)
Cooling Degree Days 18    
Growing Degree Days 33 (Base 50)    
Moisture  
Dew Point 47 °F    
Average Humidity 32    
Maximum Humidity 65    
Minimum Humidity 6    
Precipitation  
Precipitation 0.00 in 0.05 in - ()
Sea Level Pressure  
Sea Level Pressure 29.88 in    
Wind  
Wind Speed 5 mph ()    
Max Wind Speed 12 mph    
Max Gust Speed -    
Visibility 7.2 miles    
Events      
Averages and records for this station are not official NWS values.
T = Trace of Precipitation, MM = Missing Value Source: Averaged Metar Reports

Daily Weather History Graph

Daily Weather History Graph

Search for Another Location

Airport or City:

Trip Planner

Search our weather history database for the weather conditions in past years. The results will help you decide how hot, cold, wet, or windy it might be!

Date:

Astronomy

Feb. 02, 2014 Rise Set
Actual Time 6:06 AM SAST 7:30 PM SAST
Civil Twilight 5:41 AM SAST 7:55 PM SAST
Nautical Twilight 5:11 AM SAST 8:25 PM SAST
Astronomical Twilight 4:40 AM SAST 8:56 PM SAST
Moon 8:47 AM SAST (2/2) 9:14 PM SAST (2/2)
Length of Visible Light 14h 13m
Length of Day
13h 23m
Waxing Crescent, 9% of the Moon is Illuminated
Feb 2
Waxing Crescent
Feb 6
First Quarter
Feb 15
Full
Feb 22
Last Quarter
Mar 1
New

Hourly Weather History & Observations

Time (SAST) Temp. Heat Index Dew Point Humidity Pressure Visibility Wind Dir Wind Speed Gust Speed Precip Events Conditions
12:00 AM 78.8 °F - 62.6 °F 57% 29.92 in - WNW 1.2 mph - N/A   Unknown
1:00 AM 77.0 °F - 62.6 °F 61% 29.92 in 6.2 mi SSW 2.3 mph - N/A   Partly Cloudy
2:00 AM 76 °F - 63 °F 56%  in 25 mi NNE 2.3 mph - -   Scattered Clouds
2:00 AM 75.2 °F - 62.6 °F 65% 29.89 in 6.2 mi NNE 1.2 mph - N/A   Partly Cloudy
3:00 AM 75.2 °F - 62.6 °F 65% 29.86 in 6.2 mi North 3.5 mph - N/A   Partly Cloudy
4:00 AM 75.2 °F - 44.6 °F 34% 29.89 in 6.2 mi South 8.1 mph - N/A   Partly Cloudy
5:00 AM 73 °F - 50 °F 33%  in 25 mi South 9.2 mph - -   Scattered Clouds
5:00 AM 71.6 °F - 50.0 °F 46% 29.89 in - South 8.1 mph - N/A   Clear
6:00 AM 68.0 °F - 48.2 °F 49% 29.89 in - South 6.9 mph - N/A   Clear
7:00 AM 69.8 °F - 50.0 °F 49% 29.92 in - SSW 6.9 mph - N/A   Clear
8:00 AM 71 °F - 50 °F 36%  in 16 mi South 8.1 mph - -   Haze
8:00 AM 69.8 °F - 48.2 °F 46% 29.95 in - South 6.9 mph - N/A   Clear
9:00 AM 75.2 °F - 50.0 °F 41% 29.92 in 6.2 mi South 8.1 mph - N/A   Partly Cloudy
10:00 AM 77.0 °F - 48.2 °F 36% 29.92 in 6.2 mi South 6.9 mph - N/A   Partly Cloudy
11:00 AM 83 °F - 47 °F 18%  in 16 mi SSE 3.5 mph - -   Haze
11:00 AM 82.4 °F - 46.4 °F 28% 29.92 in 6.2 mi SSE 3.5 mph - N/A   Partly Cloudy
11:43 AM 86.0 °F - 44.6 °F 23% 29.92 in 6.2 mi SSW 3.5 mph - N/A   Partly Cloudy
12:00 PM 87.8 °F - 44.6 °F 22% 29.92 in 6.2 mi SE 2.3 mph - N/A   Partly Cloudy
1:00 PM 89.6 °F - 42.8 °F 20% 29.89 in 6.2 mi SW 5.8 mph - N/A   Partly Cloudy
2:00 PM 93 °F - 40 °F 8%  in 25 mi SSW 5.8 mph - -   Scattered Clouds
2:00 PM 93.2 °F - 39.2 °F 15% 29.86 in 6.2 mi SSW 4.6 mph - N/A   Partly Cloudy
3:00 PM 93.2 °F - 33.8 °F 12% 29.83 in 6.2 mi WSW 4.6 mph - N/A   Partly Cloudy
4:00 PM 95.0 °F - 37.4 °F 13% 29.83 in 6.2 mi South 4.6 mph - N/A   Partly Cloudy
5:00 PM 96 °F - 36 °F 6%  in 25 mi SW 6.9 mph - -   Scattered Clouds
5:00 PM 95.0 °F - 35.6 °F 12% 29.80 in 6.2 mi SW 6.9 mph - N/A   Partly Cloudy
6:00 PM 95.0 °F - 32.0 °F 11% 29.80 in 6.2 mi West 3.5 mph - N/A   Partly Cloudy
7:00 PM 93.2 °F - 32.0 °F 11% 29.80 in 6.2 mi SW 8.1 mph - N/A   Partly Cloudy
8:00 PM 91 °F - 32 °F 6%  in 25 mi WSW 6.9 mph - -   Scattered Clouds
8:00 PM 89.6 °F - 32.0 °F 13% 29.80 in 6.2 mi WSW 5.8 mph - N/A   Partly Cloudy
9:00 PM 86.0 °F 84.9 °F 57.2 °F 37% 29.83 in - North 11.5 mph - N/A   Unknown
10:00 PM 82.4 °F 82.5 °F 59.0 °F 45% 29.86 in - North 9.2 mph - N/A   Unknown
11:00 PM 82 °F - 62 °F 42%  in - North 10.4 mph - -  
11:00 PM 80.6 °F 81.5 °F 60.8 °F 51% 29.86 in - North 9.2 mph - N/A   Unknown